Golden Triangle, MS

9:44 AM CDT on October 23, 2017 (GMT -0500)
Golden Triangle Regional

Weather History for KGTR - October, 2013

Change the Weather History Date:

Tuesday, October 1, 2013

  Actual Average Record
Temperature  
Mean Temperature 73 °F -  
Max Temperature 84 °F 79 °F 93 °F (1998)
Min Temperature 62 °F 55 °F 42 °F (1999)
Cooling Degree Days 8    
Growing Degree Days 23 (Base 50)    
Moisture  
Dew Point 65 °F    
Average Humidity 85    
Maximum Humidity 100    
Minimum Humidity 53    
Precipitation  
Precipitation 0.00 in - - ()
Sea Level Pressure  
Sea Level Pressure 30.05 in    
Wind  
Wind Speed 5 mph (SSE)    
Max Wind Speed 9 mph    
Max Gust Speed -    
Visibility 6 miles    
Events Fog    
Averages and records for this station are not official NWS values.
T = Trace of Precipitation, MM = Missing Value Source: NWS Daily Summary

Daily Weather History Graph

Daily Weather History Graph

Search for Another Location

Airport or City:

Trip Planner

Search our weather history database for the weather conditions in past years. The results will help you decide how hot, cold, wet, or windy it might be!

Date:

Astronomy

Oct. 01, 2013 Rise Set
Actual Time 6:48 AM CDT 6:38 PM CDT
Civil Twilight 6:24 AM CDT 7:03 PM CDT
Nautical Twilight 5:55 AM CDT 7:31 PM CDT
Astronomical Twilight 5:26 AM CDT 8:00 PM CDT
Moon 3:31 AM CDT (10/1) 4:35 PM CDT (10/1)
Length of Visible Light 12h 39m
Length of Day
11h 49m
Waning Crescent, 12% of the Moon is Illuminated
Oct 1
Waning Crescent
Oct 4
New
Oct 11
First Quarter
Oct 18
Full
Oct 26
Last Quarter

Hourly Weather History & Observations

Time (CDT) Temp. Heat Index Dew Point Humidity Pressure Visibility Wind Dir Wind Speed Gust Speed Precip Events Conditions
12:15 AM 64.4 °F - 62.6 °F 94% 30.00 in 10.0 mi SE 4.6 mph - N/A   Clear
12:35 AM 64.4 °F - 62.6 °F 94% 30.00 in 10.0 mi SE 5.8 mph - N/A   Clear
12:55 AM 62.6 °F - 60.8 °F 94% 30.00 in 5.0 mi SE 3.5 mph - N/A   Clear
1:15 AM 62.6 °F - 62.6 °F 100% 30.01 in 3.0 mi SSE 3.5 mph - N/A   Scattered Clouds
1:35 AM 62.6 °F - 62.6 °F 100% 30.01 in 0.5 mi South 4.6 mph - N/A   Overcast
1:55 AM 62.6 °F - 62.6 °F 100% 30.01 in 0.5 mi South 5.8 mph - N/A   Overcast
2:15 AM 62.6 °F - 62.6 °F 100% 30.01 in 0.2 mi SSE 6.9 mph - N/A   Overcast
2:35 AM 64.4 °F - 62.6 °F 94% 30.01 in 0.2 mi South 5.8 mph - N/A   Overcast
2:55 AM 64.4 °F - 62.6 °F 94% 30.01 in 0.5 mi South 5.8 mph - N/A   Overcast
3:15 AM 64.4 °F - 62.6 °F 94% 30.01 in 0.5 mi SSE 4.6 mph - N/A   Overcast
3:35 AM 64.4 °F - 62.6 °F 94% 30.02 in 0.5 mi South 8.1 mph - N/A   Overcast
3:55 AM 64.4 °F - 62.6 °F 94% 30.02 in 0.5 mi SSE 8.1 mph - N/A   Overcast
4:15 AM 64.4 °F - 64.4 °F 100% 30.02 in 0.8 mi SSE 8.1 mph - N/A   Overcast
4:35 AM 64.4 °F - 64.4 °F 100% 30.03 in 0.8 mi SE 4.6 mph - N/A   Overcast
4:55 AM 64.4 °F - 64.4 °F 100% 30.03 in 1.0 mi SE 6.9 mph - N/A   Overcast
5:15 AM 64.4 °F - 64.4 °F 100% 30.04 in 1.2 mi SE 6.9 mph - N/A   Overcast
5:35 AM 64.4 °F - 64.4 °F 100% 30.05 in 0.8 mi SSE 6.9 mph - N/A   Overcast
5:50 AM 64.4 °F - 64.4 °F 100% 30.05 in 0.2 mi SSE 4.6 mph - N/A Fog Fog
6:45 AM 64.4 °F - 62.6 °F 94% 30.07 in 0.5 mi SE 4.6 mph - N/A Fog Fog
7:10 AM 66.2 °F - 64.4 °F 94% 30.08 in 5.5 mi SSE 4.6 mph - N/A   Overcast
7:50 AM 66.2 °F - 64.4 °F 94% 30.09 in 3.0 mi SSE 4.6 mph - N/A   Overcast
8:50 AM 66.2 °F - 64.4 °F 94% 30.10 in 4.0 mi South 6.9 mph - N/A   Overcast
9:50 AM 68.0 °F - 64.4 °F 88% 30.11 in 7.0 mi South 8.1 mph - N/A   Overcast
10:50 AM 73.4 °F - 55.4 °F 53% 30.11 in 7.0 mi South 6.9 mph - N/A   Mostly Cloudy
11:10 AM 73.4 °F - 66.2 °F 78% 30.11 in 7.0 mi SSE 4.6 mph - N/A   Mostly Cloudy
11:25 AM 73.4 °F - 68.0 °F 83% 30.11 in 10.0 mi ESE 4.6 mph - N/A   Mostly Cloudy
11:45 AM 75.2 °F - 69.8 °F 83% 30.10 in 10.0 mi South 4.6 mph - N/A   Partly Cloudy
12:45 PM 80.6 °F 83.2 °F 68.0 °F 65% 30.08 in 10.0 mi SSE 6.9 mph - N/A   Partly Cloudy
1:50 PM 84.2 °F 86.6 °F 66.2 °F 55% 30.05 in 10.0 mi South 6.9 mph - N/A   Scattered Clouds
2:50 PM 82.4 °F 83.9 °F 64.4 °F 54% 30.03 in 10.0 mi South 4.6 mph - N/A   Mostly Cloudy
3:55 PM 82.4 °F 84.6 °F 66.2 °F 58% 30.02 in 10.0 mi ESE 6.9 mph - N/A   Scattered Clouds
4:45 PM 84.2 °F 86.6 °F 66.2 °F 55% 30.02 in 10.0 mi SE 8.1 mph - N/A   Scattered Clouds
5:45 PM 84.2 °F 86.6 °F 66.2 °F 55% 30.02 in 10.0 mi SE 9.2 mph - N/A   Partly Cloudy
6:45 PM 78.8 °F - 66.2 °F 65% 30.03 in 10.0 mi ESE 6.9 mph - N/A   Partly Cloudy
7:45 PM 77.0 °F - 68.0 °F 74% 30.03 in 10.0 mi ESE 6.9 mph - N/A   Partly Cloudy
8:15 PM 75.2 °F - - N/A% 30.04 in 10.0 mi ESE 3.5 mph - N/A   Clear
8:35 PM 75.2 °F - - N/A% 30.05 in 10.0 mi East 3.5 mph - N/A   Clear
8:55 PM 73.4 °F - - N/A% 30.05 in 10.0 mi Calm Calm - N/A   Clear
9:15 PM 73.4 °F - - N/A% 30.06 in 10.0 mi Calm Calm - N/A   Clear
9:35 PM 75.2 °F - 68.0 °F 78% 30.06 in 10.0 mi Calm Calm - N/A   Clear
9:55 PM 75.2 °F - 66.2 °F 73% 30.06 in 10.0 mi Calm Calm - N/A   Clear
10:15 PM 73.4 °F - 66.2 °F 78% 30.06 in 10.0 mi Calm Calm - N/A   Clear
10:35 PM 73.4 °F - 66.2 °F 78% 30.06 in 10.0 mi Calm Calm - N/A   Clear
10:55 PM 71.6 °F - 66.2 °F 83% 30.07 in 10.0 mi Calm Calm - N/A   Clear
11:15 PM 69.8 °F - 66.2 °F 88% 30.07 in 10.0 mi Calm Calm - N/A   Clear
11:35 PM 69.8 °F - 66.2 °F 88% 30.07 in 10.0 mi Calm Calm - N/A   Clear
11:55 PM 69.8 °F - 66.2 °F 88% 30.07 in 10.0 mi South 4.6 mph - N/A   Clear